Theta_e
317 321 323 324 325 322 321 322 321 317 313 312 311 312 313 314 314 316 318 314 310 314 315 314 314 314 314 314 311 309 310 310 311 313 314 316 318 320 320 319 318 317 315 314 313 313 313 313 313 314 315 316 317 318 319 321 321 321 322 324 323 324 325 326 325 325 325 325 325 323 320 318 317 318 318 318 318 317 318 319 320 321 323 325 326 326
317 323 324 323 323 322 320 319 317 316 313 311 310 311 311 312 314 314 316 314 311 313 315 314 314 313 313 314 310 308 309 309 309 310 311 312 315 317 319 318 317 315 314 314 314 314 314 314 314 314 314 315 315 316 317 319 319 319 321 323 324 325 326 324 322 322 322 321 321 320 318 316 317 317 317 317 316 317 318 318 320 321 323 324 325 326
318 322 322 321 320 319 319 317 315 315 314 311 310 311 311 312 314 314 313 313 312 312 316 315 313 313 313 313 310 307 309 310 310 310 311 312 312 314 316 316 315 314 314 314 314 314 314 314 315 315 315 314 314 314 315 316 317 319 321 321 323 325 325 322 320 320 319 318 318 319 319 319 319 318 318 318 318 319 319 319 321 322 324 323 323 324
320 320 320 318 318 319 318 316 314 314 315 313 310 310 311 312 314 315 313 313 313 312 315 316 314 314 313 313 311 309 310 311 311 311 311 311 312 313 314 314 314 313 314 313 314 314 314 315 316 316 316 315 315 315 315 316 316 318 319 319 321 322 322 321 320 319 317 318 320 321 322 322 322 321 320 320 319 318 319 320 321 321 321 321 321 323
319 316 316 317 317 319 318 316 315 316 318 316 311 309 311 312 313 315 314 313 313 312 312 315 315 315 315 314 314 312 310 309 310 311 312 312 312 313 313 313 314 313 314 314 314 314 314 315 315 316 316 316 316 315 314 315 315 316 315 316 318 319 321 321 320 319 319 320 321 323 324 324 323 321 320 319 318 317 317 318 319 319 320 321 322 324
316 314 315 317 317 318 318 318 316 317 318 316 313 310 309 310 312 314 315 313 314 315 314 314 315 319 322 319 315 314 313 311 310 309 310 313 313 312 312 313 313 314 314 314 314 314 314 314 314 314 315 316 316 315 314 314 314 314 314 314 316 318 319 319 319 320 320 321 321 322 322 322 321 319 319 317 317 317 317 318 319 321 323 323 323 323
314 313 315 316 316 318 318 319 317 315 316 315 314 312 310 310 312 315 315 315 318 319 314 312 316 322 325 322 317 315 314 314 312 309 309 312 313 312 313 314 314 314 314 314 314 314 314 314 314 314 314 314 314 314 314 315 315 315 315 315 315 316 316 317 318 319 321 321 321 321 321 321 321 319 318 317 318 318 319 320 321 322 323 323 322 322
313 313 315 316 316 317 318 319 316 314 314 314 314 314 312 310 312 315 316 318 321 318 313 312 316 319 319 319 316 312 313 314 313 311 310 310 312 313 314 314 314 314 314 314 314 314 314 314 314 314 313 313 313 313 314 314 315 316 316 315 315 315 315 316 317 319 320 321 321 321 322 323 322 320 319 320 320 321 322 322 322 323 323 322 322 323
312 314 315 315 316 317 318 318 315 313 313 314 314 315 313 310 312 314 315 317 318 316 316 315 314 316 320 322 315 309 312 313 313 313 311 310 312 314 314 315 315 315 315 314 314 314 314 314 314 314 313 313 312 313 313 314 314 315 316 316 316 316 316 315 316 318 319 320 321 322 323 324 323 322 322 322 322 323 324 324 323 323 321 322 323 321
312 313 314 314 316 317 317 316 314 312 312 311 312 315 317 317 316 315 315 316 314 314 318 318 314 315 322 327 318 310 312 314 315 314 311 309 312 313 314 315 315 316 315 314 314 314 314 314 314 314 313 313 313 313 313 314 314 315 317 317 317 316 316 316 317 318 319 321 322 323 324 324 324 323 324 323 324 324 324 324 323 322 322 324 323 319
311 311 312 313 315 315 314 314 313 312 311 310 312 315 318 321 319 316 318 318 314 315 317 318 315 314 319 323 318 313 315 315 315 315 312 308 310 312 313 315 315 315 315 315 315 314 315 315 314 314 313 314 314 314 314 314 315 316 316 317 317 316 316 317 318 319 320 322 322 323 324 324 324 324 324 324 324 323 323 324 324 323 324 324 321 319
310 311 312 312 312 312 312 313 312 312 311 309 313 316 317 320 317 315 318 317 315 317 317 316 314 312 315 320 317 315 316 317 314 315 316 310 309 311 312 313 314 314 315 315 315 314 314 314 314 314 314 314 314 314 314 314 314 315 316 316 316 316 316 317 319 321 322 323 324 324 324 324 324 324 325 324 324 323 323 324 324 324 325 322 319 319
311 314 314 311 312 311 312 314 314 313 312 311 313 315 315 318 316 315 317 315 316 317 312 310 312 311 314 316 315 315 315 315 310 310 313 310 309 312 312 312 312 313 314 314 315 315 314 315 314 314 314 314 314 314 314 314 315 315 316 316 316 315 315 316 318 320 322 324 325 326 325 324 325 325 325 324 324 324 324 324 324 324 323 320 319 320
313 315 314 313 312 310 311 315 316 316 315 313 313 314 315 317 317 316 317 316 318 317 310 308 311 315 316 315 317 317 314 311 307 307 310 309 310 312 312 312 312 311 313 314 315 315 314 314 314 315 314 314 314 315 315 314 315 316 316 316 315 315 315 315 317 320 322 325 326 327 326 324 325 325 324 323 324 324 324 324 323 323 321 320 321 320
315 315 314 313 313 311 311 313 316 318 317 313 313 314 315 317 319 318 318 319 319 316 312 309 313 320 320 317 316 312 308 307 307 309 310 310 311 312 312 312 311 311 312 313 314 314 314 315 314 314 314 314 314 315 315 315 315 316 316 316 315 314 315 315 316 318 321 324 325 325 324 324 323 323 323 323 324 324 324 324 322 320 320 320 319 317
314 315 313 312 311 311 312 312 313 316 317 315 315 316 314 316 321 319 316 320 320 317 315 311 316 322 319 314 312 307 306 307 308 309 310 311 312 311 313 313 311 312 313 313 314 314 315 315 315 315 315 315 315 315 316 316 316 316 315 315 314 314 314 314 315 317 319 322 323 322 322 322 322 322 322 323 324 324 324 322 320 318 319 318 315 314
315 315 313 311 310 310 312 312 312 313 316 315 313 315 314 313 320 318 313 315 316 315 316 313 316 321 315 313 316 312 312 312 310 310 310 311 312 311 313 313 312 312 313 314 314 314 315 315 314 315 315 315 315 315 315 315 315 315 314 314 314 313 313 313 313 314 317 319 319 319 320 321 322 322 322 323 322 322 321 319 318 318 317 314 312 312
316 315 313 313 313 310 309 310 310 310 313 317 315 316 314 311 316 317 315 317 315 314 319 314 313 317 315 316 319 314 313 316 314 313 310 310 311 312 313 313 312 313 313 314 314 314 314 314 314 314 314 314 314 314 314 314 314 314 313 313 313 312 312 311 311 312 314 315 316 317 319 321 323 323 323 322 321 319 318 317 316 315 313 312 312 312
317 317 313 313 315 311 309 311 313 310 310 313 315 314 313 313 315 314 314 318 315 314 320 316 311 314 315 318 320 314 314 318 315 314 315 313 311 311 313 314 313 314 314 314 314 314 314 314 313 313 313 313 312 312 312 312 313 313 313 312 312 312 312 311 312 313 314 315 315 316 318 320 322 322 321 320 318 317 317 316 314 313 312 312 312 312
317 320 316 313 314 313 311 312 314 314 310 310 311 311 312 315 316 315 315 317 315 315 320 316 311 316 318 319 322 317 316 318 313 316 318 313 310 312 313 314 314 314 314 314 314 314 313 313 313 312 312 312 312 311 311 311 311 311 312 312 312 312 311 312 312 312 313 314 315 316 317 318 318 318 317 316 315 316 315 313 312 312 312 312 312 312
314 318 318 313 312 313 313 313 316 317 312 311 313 313 312 312 313 316 315 316 318 319 321 316 314 323 324 317 317 316 316 316 313 316 316 310 310 314 313 313 314 314 314 314 314 313 313 313 313 313 313 312 312 312 311 311 310 310 310 310 311 311 311 311 311 311 312 313 314 314 314 315 314 314 314 314 315 314 312 312 312 312 312 312 312 311
313 316 318 315 313 313 314 314 316 317 315 315 315 314 315 313 314 316 314 314 316 315 319 317 317 328 326 315 313 313 315 313 309 310 310 308 310 313 313 314 314 314 314 314 313 313 313 313 313 313 313 312 312 311 311 311 310 309 309 309 309 310 310 310 310 310 310 311 312 312 313 313 314 314 314 314 313 312 312 312 312 312 312 312 311 311
314 318 320 317 314 316 316 312 310 312 316 318 315 315 317 315 314 314 314 318 316 311 313 314 314 323 325 316 312 310 309 307 305 305 305 306 309 311 313 314 313 313 314 313 313 313 313 314 314 314 313 312 312 311 311 310 310 309 308 308 308 309 308 309 309 309 310 311 312 312 313 314 314 313 313 312 312 312 312 312 312 312 312 311 310 310
313 317 319 316 315 317 318 315 309 309 313 315 314 315 315 315 317 317 318 320 318 314 314 312 312 321 328 318 306 302 302 304 305 306 305 305 307 308 310 313 314 313 313 313 313 313 314 314 314 314 313 313 312 312 311 310 309 309 309 309 309 309 309 310 310 311 312 312 313 313 313 313 313 312 312 312 312 312 312 312 312 311 311 310 309 308
312 315 317 317 316 316 317 317 313 311 312 314 316 315 313 315 317 317 315 314 314 318 318 313 315 322 326 319 307 303 306 306 304 306 307 306 306 307 308 311 313 313 313 313 313 313 314 314 314 314 313 313 312 312 312 311 311 310 310 310 310 310 311 312 313 313 313 313 313 313 312 312 312 312 312 312 312 312 312 312 311 311 310 309 307 305
315 318 315 316 317 316 316 316 315 315 313 313 316 315 312 313 313 315 316 312 313 318 315 314 320 323 321 318 313 312 314 312 308 307 308 307 306 307 307 310 312 313 312 313 313 313 314 313 314 314 313 313 313 313 313 313 313 312 312 312 312 313 313 313 313 313 313 313 312 312 312 312 312 312 312 312 312 312 312 311 311 310 309 306 304 303
319 319 314 314 315 315 317 316 316 317 314 313 316 316 315 314 312 315 318 315 317 318 314 318 323 320 317 317 314 315 317 317 313 307 306 307 306 307 308 309 311 312 312 313 313 313 313 313 313 313 313 313 313 313 313 313 313 313 313 313 313 313 313 312 312 312 312 312 312 312 312 312 312 312 312 312 312 312 311 311 310 308 306 304 303 303
318 316 313 314 314 316 320 318 315 315 314 313 314 315 317 317 314 315 315 315 320 317 314 321 323 316 315 317 318 319 319 319 314 306 306 309 307 307 309 309 311 312 312 313 313 313 313 313 313 313 313 313 313 312 313 312 312 312 312 312 312 312 312 312 312 312 312 312 312 312 312 312 312 312 312 312 311 311 310 309 308 306 304 303 303 302
316 315 313 314 314 317 320 317 314 316 314 314 314 314 316 317 316 315 314 314 318 315 312 319 322 316 313 316 318 317 314 312 309 306 309 310 308 308 309 310 311 312 312 313 313 313 313 313 313 313 313 313 313 312 312 312 312 312 312 312 312 312 312 312 312 312 312 312 312 312 312 312 312 312 312 311 311 310 309 307 305 304 303 303 302 302
313 316 314 313 313 315 316 315 314 315 315 314 314 313 314 315 315 315 314 313 314 314 312 315 318 315 313 314 315 312 308 306 305 305 307 309 308 309 309 310 311 312 312 313 312 313 313 313 313 313 313 313 312 312 312 312 312 312 312 312 312 312 312 312 312 312 312 312 312 312 312 312 312 311 311 311 310 308 307 305 304 303 303 302 302 301
311 315 313 312 313 313 314 315 314 314 314 314 314 313 313 314 314 314 313 313 313 313 313 314 315 314 311 310 309 307 307 307 306 306 306 308 309 309 309 310 311 311 312 312 312 313 312 313 313 312 313 312 312 312 312 312 312 312 312 312 312 312 312 312 312 312 312 312 312 312 312 311 311 311 310 309 308 306 305 304 303 302 302 301 300 299
313 313 310 312 315 313 313 317 315 313 313 313 313 313 313 313 313 313 313 313 313 313 313 314 313 312 311 309 307 307 307 306 307 309 308 308 309 310 310 311 311 312 312 312 312 313 312 312 313 313 313 313 312 312 312 312 312 312 312 312 312 312 312 312 312 312 312 312 312 312 311 311 311 310 309 308 306 304 303 303 302 302 301 300 298 297
316 315 313 315 316 314 313 315 315 313 312 313 313 312 311 312 312 313 313 313 313 312 314 313 312 313 315 313 311 311 309 307 308 310 310 309 309 310 310 311 312 312 312 312 312 312 312 313 312 313 313 313 313 312 312 312 312 312 312 312 312 312 312 312 312 312 311 311 311 311 311 310 310 309 308 306 304 303 302 302 302 301 299 298 296 296
316 317 316 316 316 315 312 313 315 315 314 314 315 314 312 311 312 312 312 312 312 312 312 311 312 316 317 314 313 313 312 310 310 310 311 311 310 311 311 312 312 312 312 312 312 312 312 312 312 313 313 313 313 312 312 312 312 312 312 312 312 312 312 312 312 311 311 311 310 310 310 310 309 308 306 304 303 302 302 302 301 299 297 296 296 296
315 316 317 317 317 316 313 313 315 315 313 314 317 316 312 310 311 312 312 311 311 311 311 311 312 314 313 310 310 309 310 311 311 311 312 312 311 312 312 312 312 312 312 312 311 312 312 312 312 313 312 313 313 312 312 312 312 312 312 312 312 312 312 312 311 311 311 310 310 310 310 309 307 306 304 303 302 301 301 300 299 298 296 296 296 295
314 315 316 316 316 314 313 314 315 314 314 316 316 313 311 311 312 311 311 312 311 310 311 311 311 311 308 307 307 308 309 310 310 311 311 312 312 312 312 312 313 312 313 312 312 312 312 312 313 312 312 313 312 312 312 312 312 312 311 312 312 312 311 311 311 311 310 310 310 309 309 307 306 304 303 302 301 301 300 299 297 296 296 296 295 295
313 315 316 314 314 316 315 314 314 315 314 315 316 313 311 313 314 313 312 313 311 310 310 310 310 310 309 307 307 308 309 310 311 311 312 311 312 312 312 313 313 313 313 313 313 313 312 312 312 312 312 312 312 312 312 312 312 311 311 311 311 311 311 311 310 310 310 310 309 309 307 306 304 303 302 301 301 300 299 297 296 295 296 295 295 295
311 315 315 313 314 318 318 315 314 315 313 313 316 315 311 310 312 313 312 313 313 311 309 309 311 311 309 308 307 307 309 311 312 312 312 312 312 312 312 313 313 313 313 312 312 312 312 312 312 312 312 312 312 312 312 312 312 311 311 311 311 311 311 310 310 310 310 309 309 307 306 304 303 302 301 301 300 299 297 296 295 295 295 295 295 294
313 315 315 315 314 315 316 314 314 314 313 315 319 317 311 308 309 312 313 315 314 310 308 309 310 309 308 307 307 308 310 313 312 311 312 314 314 313 312 313 312 313 313 313 313 312 312 311 312 311 312 312 312 312 312 311 311 311 310 310 310 310 310 310 310 309 309 308 307 306 304 303 301 301 300 300 299 297 296 295 295 295 295 294 294 294
313 314 313 314 315 314 314 314 314 312 313 318 319 314 309 308 310 314 316 314 312 310 309 309 308 308 308 308 307 308 311 313 312 311 312 313 313 312 312 312 312 312 312 313 313 313 312 311 311 311 311 312 312 312 312 311 311 310 310 310 310 310 310 310 309 309 308 307 305 304 302 301 300 300 299 298 297 296 295 295 295 295 294 294 294 294
313 314 313 314 314 314 313 314 314 313 315 321 316 308 307 310 312 315 315 313 311 309 309 310 309 310 310 308 307 308 311 311 311 311 312 313 312 312 312 312 312 312 312 312 312 312 312 311 310 310 310 311 312 312 311 311 310 310 310 309 310 310 310 310 309 308 307 305 303 302 301 300 300 299 298 296 295 295 295 294 294 294 294 294 294 294
313 314 315 314 313 315 314 313 314 314 315 316 311 305 307 313 315 314 313 311 311 310 310 311 311 311 311 309 308 310 311 310 310 311 311 312 312 312 312 312 312 312 311 312 312 311 311 311 310 310 310 310 311 311 311 311 310 310 310 309 309 309 309 309 308 307 306 304 302 300 300 299 299 298 296 295 295 294 295 294 294 294 294 294 294 293
312 313 314 312 313 315 315 313 314 315 312 310 309 308 310 313 315 314 311 310 311 311 311 312 311 310 311 310 310 311 311 311 310 310 311 311 311 311 311 311 311 311 311 311 311 311 311 310 310 310 310 310 310 310 311 311 310 310 310 309 309 309 309 308 308 306 305 303 301 299 299 298 298 297 296 295 294 294 294 294 294 294 294 294 293 293
311 313 314 313 313 315 314 313 314 313 309 308 311 312 311 312 313 313 311 310 311 311 311 311 311 311 311 311 311 311 311 310 310 310 310 311 311 311 311 311 311 311 311 310 310 310 310 310 310 310 310 310 310 310 310 310 310 309 309 309 309 308 308 307 307 305 303 301 299 298 298 297 297 296 295 294 294 294 293 294 294 294 294 293 293 292
311 311 311 312 313 314 314 313 312 309 306 307 311 312 311 310 311 312 312 311 311 311 311 311 312 311 311 311 311 311 311 311 310 310 310 310 310 310 311 311 310 311 311 311 311 311 310 310 310 310 309 309 309 309 309 309 309 309 308 308 308 308 307 307 305 303 301 299 298 298 297 297 296 295 294 294 293 293 294 294 294 294 293 293 292 292
309 307 308 312 314 312 310 310 308 306 305 307 310 311 311 310 311 311 312 311 311 311 311 311 312 312 311 311 311 311 311 311 310 310 310 310 310 310 310 311 311 311 311 311 311 311 311 310 310 309 309 309 308 309 309 308 308 308 308 308 307 307 307 306 304 303 300 299 298 297 297 296 295 294 294 293 293 293 293 294 293 293 293 292 292 293
307 305 308 314 314 311 311 312 309 307 307 307 309 311 311 310 310 310 311 311 311 311 311 311 311 311 311 311 311 311 311 311 311 310 310 310 311 311 311 312 311 311 312 311 311 310 310 309 309 309 309 309 308 308 308 308 308 307 307 307 307 306 306 305 303 302 300 298 297 297 296 296 295 294 294 293 293 293 293 293 293 292 292 292 292 293
308 306 310 315 313 310 311 309 305 305 306 306 308 310 310 310 311 310 310 310 310 310 311 311 311 311 311 311 311 310 311 311 311 311 311 311 311 311 311 311 311 311 311 311 310 310 309 309 309 309 309 308 308 308 307 307 307 307 307 306 306 305 305 304 302 301 299 298 297 296 296 295 294 294 294 293 293 293 293 293 292 292 292 292 293 293
307 307 311 314 312 310 309 305 303 306 308 307 308 310 311 311 311 310 310 310 310 310 310 310 310 311 311 310 311 310 311 311 311 311 311 311 311 311 311 311 310 310 310 310 310 310 309 309 309 308 308 308 307 307 307 306 306 306 306 306 305 304 303 303 301 299 298 297 296 296 295 294 294 293 293 293 293 293 292 292 291 291 292 293 293 292
307 310 311 311 311 311 310 307 307 311 312 309 308 310 312 311 311 310 309 309 309 310 310 310 310 311 311 311 311 311 311 311 311 311 311 311 311 310 310 310 310 310 310 310 310 309 309 309 308 308 307 307 306 306 306 306 306 306 305 305 304 303 302 301 300 298 297 296 296 295 295 294 294 293 293 293 293 292 292 291 292 292 292 292 292 291
307 310 310 309 311 311 309 308 308 310 311 309 309 310 311 311 311 310 309 309 309 310 310 310 310 310 310 310 310 310 310 310 310 310 310 310 310 309 309 309 309 309 309 309 309 308 308 308 307 307 306 306 305 305 305 305 305 305 304 304 303 302 300 299 298 298 297 296 295 295 294 294 294 293 293 292 292 292 292 292 292 292 292 291 291 290
Wind_Speed
10 5 6 10 12 13 12 13 9 3 1 3 1 3 5 5 6 5 4 5 4 5 7 8 9 11 13 12 6 8 13 15 19 21 23 26 28 30 32 34 34 34 32 28 28 28 27 28 28 28 29 29 30 30 30 31 30 29 28 28 26 25 23 22 22 23 24 24 24 22 22 21 20 19 19 18 17 17 16 16 17 17 16 16 17 17
8 7 11 11 7 8 9 9 10 7 5 4 2 4 5 5 6 6 4 4 1 4 6 6 8 11 13 11 5 7 10 14 23 25 26 28 28 30 33 34 35 33 31 30 30 29 28 29 29 29 30 30 31 31 31 31 30 29 29 28 27 26 25 24 23 23 24 24 24 22 20 19 18 17 16 15 15 15 15 15 15 15 15 16 16 17
5 8 7 7 8 9 9 10 12 11 7 5 4 4 5 4 4 6 3 3 2 3 4 4 6 10 13 10 6 10 12 18 27 27 28 30 29 32 35 35 35 34 33 32 31 30 29 29 29 30 31 31 31 30 31 31 30 30 30 29 28 28 27 25 24 24 24 23 22 21 20 18 18 16 15 15 15 16 16 16 15 15 16 15 16 16
6 5 4 10 12 12 9 10 12 8 6 5 4 4 6 3 1 4 3 1 2 1 1 4 4 7 10 8 5 12 18 20 22 23 25 28 30 34 36 35 36 35 34 32 31 30 29 29 30 31 31 31 31 30 31 32 31 32 31 30 29 29 28 27 26 25 23 22 22 22 22 21 20 18 16 16 17 18 18 18 17 16 15 15 15 14
3 1 8 11 9 12 11 11 12 8 6 7 7 7 7 6 5 5 4 1 1 2 1 4 1 5 7 8 6 10 15 16 19 20 23 28 32 34 32 33 35 36 35 32 31 29 27 29 30 31 31 31 31 32 32 32 31 31 30 29 29 29 29 28 27 26 24 24 24 24 24 24 23 22 20 20 20 20 19 17 16 14 13 13 13 12
2 3 12 11 6 11 11 10 11 10 6 7 10 10 9 9 8 6 4 1 2 4 3 4 3 6 5 6 8 7 6 10 14 16 22 30 32 32 32 35 36 35 35 34 32 30 28 28 28 30 31 31 32 32 32 31 30 30 29 29 29 29 29 28 28 27 27 26 26 26 27 26 25 24 23 22 21 19 16 14 13 12 12 13 13 12
2 6 11 9 9 10 9 9 12 12 7 6 7 9 11 11 8 6 5 4 4 5 4 2 5 6 6 5 8 7 7 10 10 10 19 29 30 31 35 37 37 36 35 35 33 31 30 29 28 30 31 32 33 31 30 30 30 31 30 29 29 29 28 28 28 29 29 28 28 28 28 27 26 25 24 22 19 17 14 14 13 13 13 13 13 11
4 8 7 8 11 9 9 10 11 14 9 5 3 5 9 11 10 8 5 5 4 2 3 0 4 4 5 6 5 3 6 10 10 8 14 24 29 32 37 38 37 37 36 34 33 31 30 30 30 29 29 31 32 30 30 30 30 31 31 30 30 29 29 28 29 30 30 30 29 29 28 27 26 25 23 21 19 17 15 15 16 16 16 14 13 11
6 9 9 9 10 8 9 7 10 13 8 4 0 1 5 7 9 8 6 6 3 0 4 3 4 3 6 6 5 1 5 9 10 10 13 22 32 36 39 41 39 38 37 35 34 32 30 30 29 29 27 27 29 29 30 30 30 30 30 31 31 30 30 29 30 31 31 31 30 30 29 28 26 25 23 21 19 18 17 17 17 17 16 14 15 14
4 11 15 13 9 8 6 6 11 14 8 3 1 1 2 3 1 2 4 5 1 2 9 7 6 5 5 5 3 1 4 7 8 9 12 23 33 36 40 42 41 40 39 37 36 33 31 29 28 29 28 27 27 28 30 30 30 30 30 31 31 31 30 30 30 31 31 31 31 30 29 27 26 25 23 21 21 20 19 18 17 16 15 15 17 15
1 9 17 11 6 6 7 8 12 11 6 2 2 3 4 5 3 3 0 2 2 6 10 8 9 7 6 5 5 5 5 7 8 7 10 18 27 31 36 41 42 42 40 38 37 34 32 30 29 29 29 27 26 27 29 29 30 30 30 30 30 30 30 30 30 30 30 30 30 29 28 27 26 25 23 22 21 21 20 18 17 16 16 17 17 14
3 6 8 5 6 9 7 7 10 7 4 1 1 2 3 3 2 3 2 1 5 8 7 5 6 6 7 5 4 7 6 7 8 8 9 12 18 24 28 34 39 41 39 37 36 35 34 33 30 30 30 28 27 28 29 29 29 29 29 29 29 30 30 31 31 31 30 30 29 29 28 27 26 24 23 22 22 21 20 19 19 17 18 18 16 12
2 2 2 4 9 12 8 5 6 5 4 3 3 4 3 1 1 1 3 3 6 6 4 1 3 4 7 7 7 8 8 8 10 11 12 12 15 17 18 21 28 34 36 36 36 36 36 35 33 31 31 30 29 28 29 29 29 29 29 29 30 30 30 30 31 31 31 31 30 29 28 27 25 23 23 22 20 20 19 19 19 18 18 17 14 12
2 4 3 5 6 12 13 8 7 7 7 8 7 7 6 5 5 6 5 2 5 4 3 1 2 3 4 5 9 11 10 11 12 15 17 16 17 16 14 14 18 25 30 33 35 35 35 34 33 31 31 32 31 30 30 31 31 31 31 31 31 31 31 31 32 32 32 31 30 28 27 26 24 23 21 20 19 19 19 19 19 19 17 16 14 13
5 3 7 7 5 12 12 8 8 5 5 8 6 4 5 4 5 6 4 4 4 3 3 2 2 4 3 4 8 10 10 10 12 17 18 19 20 18 16 14 16 21 26 29 30 30 30 30 29 29 30 32 33 33 33 33 33 33 32 32 32 32 33 33 33 33 33 32 30 29 27 26 24 22 21 20 20 20 20 20 20 18 16 15 14 13
6 3 2 3 7 14 11 5 6 5 3 4 3 4 6 5 4 2 3 5 3 1 1 2 3 4 4 5 6 5 8 9 11 14 15 17 19 17 17 15 17 21 24 26 26 26 25 25 26 27 28 30 32 33 34 34 34 34 34 34 33 33 34 34 34 34 33 32 30 29 27 26 24 23 23 22 22 22 22 21 19 16 15 14 13 12
5 2 1 3 4 9 11 9 6 6 5 3 4 7 5 2 5 2 2 1 3 2 3 2 4 5 3 6 7 4 5 7 8 10 12 14 15 15 17 16 18 22 23 24 24 24 24 24 25 27 28 30 32 33 34 34 35 35 35 35 34 34 34 34 34 34 32 31 30 28 27 26 24 24 23 23 23 23 22 20 17 16 15 14 13 12
5 1 1 4 4 4 8 10 5 5 5 4 5 7 1 2 2 2 2 1 2 3 4 1 4 4 2 4 6 4 3 8 8 8 9 11 13 16 19 17 18 21 22 22 23 23 24 24 25 27 28 30 32 33 34 34 35 36 35 35 35 34 34 33 32 31 30 29 28 27 26 25 25 24 23 23 23 22 20 18 17 16 15 14 14 13
5 3 3 2 5 3 4 6 4 4 5 3 3 3 3 3 4 2 3 2 2 4 4 3 3 4 4 5 3 2 7 9 9 7 7 9 13 18 19 18 19 20 22 23 23 24 24 24 24 24 25 26 28 30 31 32 33 34 34 34 33 33 32 31 30 28 27 27 26 26 26 25 25 25 24 24 22 21 19 18 17 16 15 15 14 12
4 4 1 2 3 3 2 3 5 5 3 1 1 1 2 3 4 3 3 2 3 4 2 2 3 3 5 6 5 7 10 10 9 7 7 11 17 20 20 20 22 23 24 24 23 23 22 21 20 20 21 21 23 25 27 28 29 30 31 32 32 31 30 28 28 27 27 26 26 26 25 25 25 24 24 23 21 21 20 18 17 17 15 14 13 13
4 3 2 1 0 2 2 4 6 6 4 3 3 4 4 4 2 2 1 2 3 3 3 2 2 5 6 5 8 11 10 9 8 7 8 13 19 21 21 22 23 24 24 23 22 21 19 18 18 18 18 19 20 22 23 24 25 26 28 29 30 30 28 28 27 27 27 27 26 25 24 24 24 24 23 23 22 21 20 18 18 17 15 14 14 13
3 3 4 2 2 4 3 1 4 6 6 5 5 5 5 6 3 3 4 1 2 2 4 4 2 6 6 4 9 11 6 4 6 7 9 15 20 23 22 22 23 22 22 21 19 18 17 16 16 16 16 17 18 19 21 22 23 24 25 25 26 26 26 27 27 27 27 26 25 24 24 24 24 24 24 23 22 21 20 19 17 17 16 15 15 14
3 4 5 2 4 5 3 1 3 3 3 3 4 4 4 4 5 6 7 3 1 1 2 3 1 6 6 4 6 7 5 5 7 8 11 16 19 21 22 23 22 21 20 18 17 16 15 15 14 14 15 16 17 18 19 20 21 22 23 23 24 25 25 25 25 26 26 25 25 25 26 26 25 25 24 23 22 20 19 19 17 17 17 16 15 14
3 4 4 1 1 2 3 2 1 2 2 2 4 3 4 4 3 5 5 3 3 2 2 2 3 6 6 4 4 7 8 10 11 11 14 17 16 17 20 23 23 22 19 17 16 16 16 16 15 15 15 16 16 17 17 19 20 21 22 24 25 25 25 25 25 26 26 26 27 27 27 26 25 24 23 22 21 20 19 19 18 18 17 16 15 14
6 3 4 4 2 1 2 3 4 4 3 3 3 1 3 3 4 2 2 2 3 4 5 5 5 6 6 4 4 6 6 8 12 13 14 16 15 14 17 21 23 22 20 18 18 18 18 18 17 16 16 16 15 16 16 18 19 21 23 24 26 26 26 26 26 26 27 27 28 28 27 25 24 24 22 22 21 20 20 19 19 19 18 16 15 14
8 4 5 7 7 8 9 8 7 5 2 1 2 1 3 5 5 3 2 3 5 4 4 5 5 5 6 6 6 6 5 6 10 9 10 13 13 12 14 19 22 22 21 20 19 19 19 18 18 17 17 16 15 16 17 19 20 22 24 25 25 26 27 27 27 27 27 28 27 27 26 25 24 23 23 22 21 21 21 20 20 19 18 17 16 15
4 3 8 10 10 10 7 4 4 7 6 7 6 5 5 6 6 4 1 4 5 2 2 5 5 4 7 7 6 7 6 6 7 7 9 11 11 11 12 17 20 21 20 20 20 20 20 20 19 18 17 16 17 18 19 21 22 24 25 26 26 27 27 27 28 27 27 26 26 25 25 24 24 23 23 22 22 21 21 20 20 19 18 18 16 15
3 4 10 10 9 7 5 5 7 9 10 12 10 8 7 6 7 7 8 9 5 4 7 7 5 5 8 8 8 8 7 6 6 9 10 9 9 11 12 15 19 20 20 21 21 22 22 21 20 19 19 18 19 21 22 24 25 25 26 26 27 27 27 27 27 27 26 26 25 25 24 24 24 23 23 22 22 22 21 21 21 20 19 18 17 15
3 6 8 7 8 7 5 8 10 11 11 12 12 12 10 8 9 11 14 12 8 7 11 7 8 10 8 8 10 9 6 5 6 8 9 8 10 12 13 15 19 20 21 23 23 24 23 22 22 21 21 21 23 25 26 27 27 27 27 27 27 27 27 27 27 27 26 26 25 25 24 24 24 24 24 23 23 22 22 22 21 20 19 18 17 15
3 5 5 8 8 6 5 7 8 10 10 10 14 17 15 14 15 16 17 14 11 13 13 7 9 12 8 8 11 9 5 4 4 5 7 9 11 13 15 16 18 20 22 23 24 24 24 23 22 22 23 25 27 29 30 30 29 29 29 28 28 28 28 28 27 27 26 26 26 25 25 25 25 25 25 24 24 24 23 23 22 21 19 18 17 16
2 3 3 7 6 4 3 3 5 8 8 9 14 18 20 20 20 18 16 12 10 13 11 7 11 12 8 7 11 11 8 5 4 5 7 9 11 13 15 17 18 19 21 22 24 24 25 25 24 25 26 28 30 31 31 31 30 29 29 28 28 28 28 28 28 27 27 26 26 26 26 26 26 26 26 25 25 25 24 23 22 20 19 18 17 16
3 2 2 5 5 5 2 4 5 4 2 7 14 17 19 19 18 16 14 12 13 12 9 9 12 10 5 5 9 14 12 8 9 11 10 10 12 14 16 17 17 18 20 22 24 25 26 26 27 28 29 30 32 33 32 31 30 29 29 28 28 29 29 29 28 27 27 27 27 27 27 27 27 27 27 27 26 26 25 23 22 20 19 19 18 17
6 5 3 4 6 3 1 4 5 5 1 9 14 14 15 15 13 13 12 14 16 13 10 12 11 5 4 7 9 10 8 8 15 19 15 13 14 16 17 17 17 19 20 22 24 25 25 26 27 29 30 32 34 35 33 32 31 30 29 30 30 30 30 29 29 28 29 29 29 29 29 28 28 28 28 28 27 26 25 23 22 21 20 19 18 17
8 7 4 5 5 2 2 5 7 4 5 9 6 11 17 17 15 15 15 15 16 13 11 11 7 4 7 10 12 11 10 14 21 24 21 18 16 16 18 19 20 21 21 22 24 25 25 25 26 29 31 32 34 35 34 32 31 30 30 31 30 30 30 30 30 30 30 30 30 30 30 29 30 30 29 29 28 26 25 24 23 22 20 19 18 17
10 9 5 3 4 3 3 6 5 7 9 5 1 5 14 17 17 18 18 17 17 16 15 13 9 7 10 14 14 14 16 19 21 20 19 19 18 18 21 22 23 23 23 23 24 25 26 26 27 28 30 32 34 35 35 34 33 32 32 32 32 32 32 31 32 32 31 31 31 31 31 31 32 31 30 29 28 27 26 24 23 22 20 19 18 16
11 8 4 2 3 3 3 6 8 7 5 3 2 1 3 5 6 8 12 15 16 14 14 16 15 12 12 15 13 9 10 13 15 17 20 20 20 21 23 23 22 21 22 23 23 24 24 24 24 24 26 30 34 37 38 37 36 35 34 34 34 34 34 33 33 33 33 33 33 33 34 34 33 32 31 30 29 27 26 24 23 22 21 19 18 16
11 9 4 3 2 3 4 5 5 6 9 8 5 3 4 6 7 8 9 13 15 15 14 14 14 13 13 14 12 6 4 4 7 17 25 24 22 23 24 23 21 20 21 22 23 24 24 23 23 24 25 29 33 37 39 39 39 38 37 37 37 36 36 35 35 35 35 35 35 35 35 35 33 32 31 30 29 27 26 24 23 22 21 19 17 15
10 8 8 7 2 3 5 2 3 6 11 9 5 5 9 12 12 11 8 9 10 15 19 16 13 15 14 12 12 8 4 2 4 15 27 27 24 26 26 25 23 22 23 24 24 25 25 25 25 26 27 29 32 36 40 41 41 40 39 39 38 38 38 37 37 37 37 37 37 36 36 35 34 33 32 30 28 27 25 24 23 22 20 18 17 15
6 5 8 8 3 4 6 5 6 9 9 4 7 7 11 16 16 11 2 9 7 12 21 19 14 15 14 15 16 12 6 3 6 16 27 27 25 27 28 27 26 25 25 26 26 26 26 25 24 25 27 30 32 34 38 41 42 42 41 40 40 40 40 40 39 38 38 38 38 37 36 35 34 32 31 29 28 26 25 24 23 22 20 18 16 15
6 4 6 8 6 6 7 6 6 6 5 5 8 8 15 22 19 11 3 9 6 14 23 21 17 19 22 23 19 12 8 10 11 17 24 22 21 21 20 22 26 27 27 28 27 28 27 25 25 25 26 28 29 31 35 39 41 43 42 42 41 41 41 40 39 39 39 38 38 38 37 35 34 32 30 29 27 27 26 24 23 21 19 18 16 15
4 3 4 6 7 6 7 7 5 4 5 6 4 11 22 22 13 5 8 5 6 12 20 23 25 28 29 28 22 16 19 23 17 14 14 12 12 12 10 13 18 22 25 27 27 27 27 25 24 23 22 23 26 29 33 36 39 42 42 42 42 42 41 40 40 40 40 39 39 38 37 36 34 32 30 28 28 27 26 24 22 20 18 17 15 15
5 3 2 4 5 4 4 5 4 6 8 7 7 13 19 13 4 9 7 3 5 9 14 21 27 28 25 26 27 26 29 28 20 15 14 12 12 11 9 10 11 13 16 18 20 21 22 21 21 19 19 21 23 26 29 32 36 39 41 42 42 42 41 40 41 41 40 40 40 39 37 36 34 32 31 29 28 27 26 24 22 20 18 17 16 15
7 6 5 5 5 3 2 4 4 7 7 17 17 8 6 5 7 9 6 4 4 8 12 17 19 18 16 19 22 25 26 24 21 20 19 18 16 12 10 10 10 10 10 9 10 12 13 15 16 16 17 19 22 24 27 30 33 36 39 41 42 41 41 41 41 42 41 41 41 39 38 36 34 33 31 30 29 27 25 23 21 19 18 17 16 15
6 7 7 5 4 5 5 8 7 3 10 27 22 8 14 18 10 5 7 7 6 8 11 11 10 10 12 12 13 17 20 21 20 18 16 16 15 12 11 10 9 9 9 8 8 9 10 11 13 14 16 18 20 23 26 29 31 34 36 39 40 41 42 42 42 43 42 42 41 39 38 36 34 33 32 30 29 27 25 23 21 20 19 17 16 16
9 8 6 4 5 5 5 10 7 2 13 26 17 8 23 32 18 6 8 10 8 10 11 10 10 10 11 11 12 13 15 17 17 15 13 12 12 12 11 10 10 9 9 9 9 10 12 13 14 14 16 17 19 22 25 27 30 32 35 37 39 40 42 42 43 43 42 41 40 39 37 36 34 33 32 30 28 26 25 23 21 20 19 18 17 16
5 5 6 4 3 3 5 7 5 4 10 22 15 8 20 31 24 15 11 9 9 9 10 11 13 13 13 13 14 14 14 14 14 14 13 13 13 13 12 10 9 8 8 10 11 12 13 14 15 15 15 16 18 20 22 25 28 30 33 34 37 39 40 41 42 42 42 41 40 39 38 36 35 34 32 30 28 26 25 23 21 20 19 18 17 16
2 5 6 3 4 4 5 5 7 6 14 23 18 11 17 26 28 25 18 13 12 11 11 13 14 16 17 17 17 16 15 14 13 14 15 15 14 13 12 10 9 9 11 12 13 13 13 13 13 14 14 15 16 17 20 23 26 29 31 33 35 37 39 40 42 42 42 42 41 39 38 36 35 34 32 30 29 27 26 24 23 21 20 18 17 17
5 9 7 4 6 6 4 3 4 5 13 21 18 13 15 22 28 28 25 21 18 14 13 14 15 18 19 19 17 14 13 14 16 15 15 15 14 12 12 11 11 12 12 12 13 13 12 11 11 12 12 13 15 16 19 21 24 27 29 31 33 35 37 39 41 42 42 41 40 39 38 36 35 33 32 31 29 28 26 25 23 21 19 18 19 20
10 11 7 4 5 3 2 0 4 5 3 14 20 19 19 21 25 27 27 24 21 17 14 14 16 18 17 16 15 13 13 14 16 14 14 14 13 12 12 12 11 11 10 10 11 13 12 12 12 12 12 13 14 16 18 20 22 24 27 29 32 34 36 39 41 41 41 41 40 39 38 36 35 34 32 31 30 28 27 25 23 21 20 20 22 23
11 7 4 4 5 5 3 7 12 6 1 14 26 28 25 23 23 24 24 22 19 16 14 15 16 17 16 15 15 15 14 14 14 14 14 13 12 12 11 9 9 9 9 10 12 13 13 13 13 13 13 14 15 16 17 19 21 24 27 29 32 34 36 38 40 41 41 41 40 39 38 37 36 35 34 32 31 29 27 26 25 24 23 23 25 25
11 10 10 8 8 11 13 22 27 16 6 16 31 33 28 24 23 23 22 21 19 17 16 16 17 17 17 16 15 15 15 15 14 15 14 13 12 12 11 10 10 9 10 11 12 12 13 14 14 14 14 14 14 15 17 19 21 24 26 29 31 34 36 38 40 41 42 41 40 39 38 37 37 36 35 33 31 29 28 27 26 25 24 25 27 26
Wind_Direction
152 139 182 200 199 194 190 186 181 122 91 175 185 275 260 262 263 241 251 264 177 170 218 210 217 237 242 248 239 202 206 216 224 224 224 223 221 222 222 224 225 228 235 236 231 229 226 226 225 222 221 222 224 225 226 226 226 225 224 225 228 230 231 230 230 231 231 231 231 231 232 233 236 239 241 243 243 246 250 252 254 256 259 260 264 269
160 195 210 205 188 177 177 164 163 190 249 272 264 275 278 259 262 259 247 291 163 178 231 214 217 246 246 250 238 181 189 216 222 222 223 223 224 225 226 228 230 233 238 238 236 233 229 228 226 225 224 222 223 223 224 225 225 225 225 226 228 231 233 232 231 232 231 231 231 233 237 239 244 245 248 254 254 256 257 255 254 255 257 258 259 261
184 219 209 162 132 141 164 160 161 187 225 268 270 264 272 256 274 279 268 337 22 184 247 209 206 247 251 252 228 191 203 223 224 223 224 224 224 227 228 231 233 236 239 240 240 238 233 231 229 228 227 224 223 222 223 225 225 226 226 226 228 230 233 234 234 233 232 232 234 238 244 247 250 252 255 259 257 256 254 253 254 254 256 258 258 257
189 228 147 135 144 148 159 164 160 176 213 241 250 244 256 250 242 266 260 323 45 119 225 174 201 255 258 263 245 220 227 235 235 234 235 233 230 231 232 233 235 236 239 240 241 240 237 234 231 230 228 226 225 223 223 224 224 226 227 227 228 229 232 234 235 235 234 235 237 241 245 249 251 250 251 251 246 244 244 246 250 251 256 259 260 259
169 225 129 129 152 160 161 166 165 179 210 228 237 235 244 244 227 242 274 267 73 349 119 130 251 277 249 251 259 236 231 240 243 238 240 241 238 238 239 238 237 238 240 242 242 240 238 236 234 231 230 229 227 225 223 223 224 226 227 227 229 231 233 234 236 236 236 236 236 237 240 243 244 243 242 240 237 237 240 246 251 255 260 261 260 255
167 155 138 127 151 167 166 174 177 179 193 229 236 232 233 242 239 237 260 191 123 259 235 134 229 268 270 250 248 241 224 238 240 229 235 242 240 241 242 240 238 239 242 243 242 241 239 238 237 235 233 231 230 228 226 225 226 226 227 228 229 231 233 234 236 236 236 237 236 236 237 238 239 239 238 238 239 243 248 254 256 255 254 253 253 251
163 154 146 145 160 163 172 189 186 174 183 224 216 210 221 231 237 228 220 190 175 236 257 149 200 254 307 263 237 235 228 237 235 223 235 242 242 241 241 241 240 240 242 242 242 241 240 239 238 237 234 231 230 228 228 228 228 229 229 228 229 230 232 232 234 236 237 238 238 238 239 240 243 244 244 245 247 251 255 255 251 244 240 243 249 253
138 150 163 165 159 164 189 198 187 172 181 218 168 174 217 221 224 215 191 209 225 249 282 182 170 236 272 252 254 243 226 245 247 240 245 244 243 241 240 241 241 241 241 241 242 241 241 240 239 238 237 234 231 229 229 229 229 230 229 229 229 229 231 231 233 235 236 238 239 240 242 244 246 247 249 251 251 252 252 250 247 242 240 242 246 245
138 159 175 166 168 189 197 179 167 173 194 260 236 172 233 230 225 210 189 221 251 253 248 235 159 211 253 262 309 8 208 243 248 241 243 242 241 240 240 241 241 241 241 241 241 241 241 242 241 240 240 238 234 230 229 229 229 230 229 229 230 230 231 231 232 234 236 238 240 242 243 245 247 249 249 248 247 246 245 246 247 248 249 248 249 247
177 189 175 163 187 201 175 142 161 181 205 276 306 91 13 349 329 181 191 199 143 215 234 220 181 209 263 264 269 249 215 234 243 239 237 239 239 239 240 240 240 239 238 239 240 239 240 243 242 240 239 238 236 232 230 229 228 229 229 229 230 230 231 231 232 234 235 238 240 241 242 244 245 247 246 244 242 241 241 243 246 251 256 258 260 260
182 182 173 171 199 173 138 158 179 195 214 336 29 76 34 6 33 38 65 129 145 234 237 218 188 198 252 259 218 213 215 207 218 240 244 242 242 242 242 242 240 239 237 237 238 239 239 241 241 238 236 236 235 233 231 230 228 228 228 228 230 230 230 231 232 233 234 236 238 239 240 241 242 243 243 241 239 239 238 240 244 248 255 262 266 265
78 151 173 173 169 139 122 175 191 212 244 312 21 108 49 352 22 15 349 150 210 235 253 235 177 185 234 252 221 226 236 214 208 225 239 246 249 250 249 247 245 241 239 237 236 237 237 238 240 237 235 235 234 233 231 229 228 227 227 228 229 229 229 230 231 232 233 234 235 236 237 239 240 241 240 239 238 238 237 237 242 248 255 262 264 260
136 213 202 148 166 159 143 171 186 205 220 191 197 187 173 188 162 224 222 208 225 242 286 259 159 200 237 246 247 250 256 239 220 222 235 251 262 265 264 260 252 242 237 235 234 236 236 237 239 238 235 233 233 232 231 230 229 228 228 229 230 230 230 231 232 232 234 234 235 236 238 238 238 239 239 238 237 238 239 240 244 253 258 259 260 259
170 276 213 157 177 175 168 174 182 195 199 189 199 200 188 170 170 202 212 228 247 261 308 282 190 250 271 263 246 239 241 238 233 239 248 258 266 272 277 271 256 240 231 230 232 233 234 236 237 237 234 232 232 231 231 230 230 230 231 232 234 234 234 234 234 235 236 236 236 237 239 239 238 237 236 236 237 239 242 244 246 252 252 250 251 253
169 231 198 178 169 173 183 196 178 160 174 194 200 191 204 196 175 198 208 210 231 257 296 295 193 201 210 250 242 235 252 257 248 253 259 262 262 267 273 263 242 232 226 224 227 228 230 232 232 233 232 231 230 229 229 230 230 231 233 235 237 237 237 237 237 237 238 238 237 237 238 238 236 234 231 231 234 236 239 243 246 244 241 241 244 244
185 242 214 158 151 165 177 188 157 137 159 192 173 177 224 214 156 153 194 185 177 166 263 242 220 215 214 266 281 271 284 279 255 257 261 259 257 255 261 254 232 224 219 218 219 220 223 225 227 229 229 229 228 227 228 229 230 232 234 236 238 239 240 240 239 239 238 238 237 236 235 235 233 230 227 225 227 230 234 239 240 234 232 234 232 228
184 250 349 84 126 171 173 165 167 190 185 145 174 205 227 162 118 107 221 161 98 189 241 197 233 291 300 279 307 347 310 287 265 261 255 249 247 241 245 243 226 217 213 213 215 217 221 224 226 228 228 228 228 228 229 230 231 233 235 236 237 238 238 238 238 237 236 235 234 233 231 229 228 226 225 224 225 229 232 233 229 224 223 222 216 212
155 96 305 154 166 200 167 156 172 219 188 143 196 209 156 87 124 120 209 350 62 218 266 198 218 269 242 251 319 357 285 274 263 255 256 249 237 231 232 227 217 212 210 213 217 219 224 227 229 231 231 232 232 231 232 232 232 233 234 235 235 236 236 235 234 233 232 231 230 229 226 222 221 222 223 225 227 230 229 224 219 216 213 208 205 204
150 101 330 192 178 186 131 139 168 226 212 183 197 178 130 206 232 188 181 206 185 223 284 307 256 251 206 220 284 249 228 246 247 235 245 246 230 226 223 212 208 209 210 215 219 223 228 231 234 235 235 235 235 234 234 232 232 232 232 232 232 233 233 232 230 228 227 226 225 224 222 219 219 221 223 225 225 222 218 214 210 207 204 201 200 198
158 130 307 275 180 156 115 172 186 193 206 182 145 171 166 203 214 202 190 169 186 216 260 291 286 263 229 219 218 227 228 228 225 215 225 235 229 226 219 208 206 209 213 218 222 227 233 236 238 236 233 233 232 233 233 231 230 230 229 228 227 226 226 225 226 225 223 222 220 220 219 219 219 219 220 217 212 209 205 203 201 199 199 197 194 193
164 138 166 280 22 159 179 203 186 176 180 182 187 189 195 207 218 251 231 126 139 181 196 213 253 261 248 213 205 230 237 221 208 206 225 233 229 227 220 212 211 212 216 222 227 233 238 237 234 230 228 228 227 229 229 227 226 224 224 223 222 221 220 220 220 220 220 219 219 218 216 214 212 209 206 202 199 199 197 196 196 195 196 192 190 192
171 147 150 146 178 189 215 231 174 179 178 178 199 201 191 195 198 237 245 206 114 165 176 169 233 268 259 211 210 229 238 216 211 215 232 239 234 229 222 217 217 219 223 228 233 238 240 235 231 228 227 226 224 224 223 221 219 218 217 215 214 214 214 215 216 216 217 216 213 210 205 202 199 195 194 193 193 193 192 193 193 192 192 190 190 191
133 114 130 157 197 201 239 242 154 167 153 157 215 213 179 177 183 209 231 235 190 223 134 131 213 270 263 230 225 247 272 274 255 240 241 246 242 235 227 220 220 224 228 232 239 241 239 237 234 231 229 224 220 218 217 215 213 211 209 206 204 204 204 207 209 209 208 206 201 197 193 191 190 188 189 189 190 190 191 192 190 189 189 189 191 192
144 112 114 88 318 314 309 312 91 97 118 195 236 205 177 191 184 196 208 189 200 206 128 159 250 270 273 269 246 257 272 275 269 258 250 251 249 241 231 223 221 224 226 228 233 235 234 235 235 233 230 224 218 214 210 208 206 203 201 199 197 196 197 198 199 198 196 192 189 186 185 185 185 186 188 188 190 191 190 190 189 188 188 189 192 194
174 161 126 114 68 357 291 273 241 213 189 205 229 214 196 171 110 121 177 152 231 224 175 195 240 251 268 310 306 276 282 277 268 261 254 251 247 240 230 222 221 223 223 224 225 228 230 232 233 232 230 225 216 209 203 199 198 196 195 195 193 192 192 191 190 188 185 182 182 181 182 184 185 187 188 189 190 190 190 190 190 189 190 191 194 196
176 181 154 157 175 191 201 216 215 194 172 201 198 191 205 180 162 178 182 187 237 239 178 190 229 256 283 309 304 294 300 280 271 268 256 246 241 238 228 219 218 220 221 222 222 225 228 230 231 230 227 222 212 203 198 193 191 190 189 190 189 188 187 185 182 180 179 179 181 183 184 186 187 188 189 190 190 190 189 189 190 191 191 192 195 199
149 192 186 188 194 189 186 201 155 128 155 210 204 184 190 194 189 171 155 215 216 189 209 216 206 243 279 278 270 281 281 265 269 265 245 231 225 228 225 217 217 219 222 223 224 226 227 227 227 225 221 215 206 199 195 192 190 187 185 184 184 183 182 180 179 179 180 182 185 187 189 188 189 190 190 191 190 189 189 189 191 193 193 194 198 203
112 203 195 193 199 185 150 154 149 146 183 207 199 197 202 189 178 184 214 220 172 152 246 239 182 203 252 259 258 263 254 244 261 263 250 234 222 222 219 216 216 218 221 223 225 227 227 226 224 220 215 208 201 197 194 192 191 189 186 184 182 180 180 181 183 184 186 188 190 192 192 191 191 191 191 191 190 189 190 191 192 193 195 198 201 205
156 204 189 174 195 201 166 165 167 168 191 201 196 204 209 195 192 207 224 220 178 202 241 223 183 207 229 247 253 253 246 245 266 268 255 239 228 220 215 215 216 218 222 224 227 229 229 228 224 218 212 204 199 197 194 193 193 190 188 187 186 185 185 187 189 191 193 194 195 195 195 194 193 192 192 191 190 190 192 193 194 195 198 202 205 208
166 190 175 160 182 212 201 187 184 183 191 198 201 206 206 206 210 217 228 227 211 230 245 228 222 231 221 229 250 267 296 289 265 253 227 217 219 215 213 218 219 221 225 228 230 231 231 231 227 219 213 206 201 199 197 195 194 193 192 191 190 191 191 193 196 198 199 199 197 196 197 196 195 194 192 191 192 193 193 194 196 199 201 204 207 210
170 185 154 138 162 224 219 184 206 209 204 205 210 211 208 209 215 220 228 232 229 241 250 250 257 256 238 237 256 267 283 290 269 247 222 216 220 216 216 222 225 228 232 233 234 234 233 231 227 222 216 209 204 202 201 200 199 198 197 196 196 197 198 199 201 202 202 201 200 199 198 198 196 194 193 192 193 194 195 197 199 202 204 207 209 212
125 160 104 115 163 227 211 163 196 206 235 247 236 224 213 211 215 219 221 219 223 234 237 241 254 256 241 247 256 253 250 251 259 253 234 223 225 222 223 229 234 239 241 238 236 235 235 233 229 225 219 213 209 206 206 205 204 204 203 202 203 203 204 205 204 204 204 203 202 200 199 198 197 195 194 195 195 197 198 200 202 204 207 208 210 212
131 137 123 140 175 224 192 154 152 106 31 262 242 215 210 217 219 223 227 222 222 222 219 232 241 223 191 215 234 240 226 222 243 246 238 233 230 229 234 239 246 253 250 245 241 238 238 237 234 231 224 218 214 211 210 210 210 210 209 208 207 207 208 208 206 206 205 204 203 201 199 199 198 197 197 197 198 199 200 202 205 206 208 208 209 212
144 142 157 171 169 204 184 127 108 117 226 251 227 179 192 207 209 216 226 225 223 221 223 238 241 178 188 216 224 226 214 219 237 243 244 247 241 239 247 250 253 257 254 250 247 243 242 242 240 237 230 224 219 215 214 215 215 215 214 212 212 211 212 211 209 208 206 204 203 201 200 200 200 200 199 198 199 201 202 205 206 206 207 208 210 213
158 157 165 166 151 169 145 112 133 209 230 253 351 167 193 202 204 212 223 226 225 225 229 241 241 201 207 223 226 229 229 230 238 242 246 252 253 253 257 257 256 258 257 255 252 248 245 242 242 241 235 229 224 219 218 219 218 218 217 216 215 215 215 215 212 209 206 204 203 202 202 202 201 201 201 200 201 203 204 206 206 206 207 208 211 215
161 159 145 114 130 137 130 160 194 230 271 287 295 268 182 179 186 208 235 244 236 227 226 232 234 226 225 232 236 242 242 240 246 249 247 248 250 251 253 254 254 256 257 256 255 254 251 246 246 247 243 236 228 223 222 221 221 220 218 216 216 216 216 215 213 210 208 206 205 205 204 204 203 202 203 203 204 205 206 206 205 206 208 210 212 216
152 146 134 150 168 129 144 206 239 306 305 266 234 206 159 150 154 176 225 249 237 224 220 223 232 236 233 234 235 229 225 247 271 263 253 248 245 245 247 250 251 252 252 254 257 260 259 254 251 250 247 241 234 228 225 224 223 222 220 218 217 217 216 215 213 212 209 207 207 206 205 205 205 205 205 206 207 206 206 206 206 207 209 212 214 217
156 152 158 177 199 105 128 220 269 266 262 242 193 183 185 178 170 165 200 246 236 217 213 209 219 229 225 222 216 194 188 245 282 261 254 251 248 245 245 247 248 249 250 253 258 260 260 256 251 249 247 244 239 234 229 227 226 224 222 221 219 218 217 216 214 212 210 209 208 207 207 206 206 207 208 208 208 207 207 206 207 208 210 212 215 218
122 117 150 166 176 142 158 200 213 227 251 212 164 187 186 170 148 118 177 257 238 207 208 204 210 221 217 209 198 175 165 212 237 248 250 253 255 252 249 248 247 248 249 252 257 259 260 258 253 249 246 244 242 239 234 231 229 227 225 223 221 219 218 216 215 213 211 210 208 207 208 207 207 208 210 209 208 207 208 208 208 209 211 212 214 219
117 113 151 170 183 175 180 208 220 239 256 208 190 188 165 152 134 107 263 258 214 199 205 198 197 212 215 208 195 172 184 213 232 250 251 255 261 258 254 251 247 246 248 250 254 257 258 258 254 251 249 245 243 241 238 234 231 229 227 225 222 221 220 219 216 214 211 210 209 208 208 208 208 209 209 209 209 207 208 209 210 210 211 213 217 223
120 139 167 178 182 174 184 214 252 273 234 223 214 166 151 140 128 168 227 219 168 195 202 195 200 212 213 205 192 192 216 222 228 248 251 252 259 256 254 254 249 248 249 250 253 257 258 259 258 256 254 250 246 243 240 236 233 230 229 227 225 225 223 220 217 214 211 210 209 209 209 208 209 209 208 208 209 209 209 209 210 211 213 215 221 227
155 158 173 172 167 161 182 209 270 273 220 176 146 158 154 140 174 222 209 140 158 192 195 199 209 214 213 208 205 215 229 231 232 243 248 249 254 255 255 253 251 253 255 254 255 257 259 261 260 255 251 247 245 244 243 240 236 233 231 229 228 227 224 221 218 215 212 210 210 209 210 209 209 208 207 208 209 210 211 210 209 211 215 219 224 229
164 157 179 190 170 147 162 184 230 268 202 142 129 142 181 188 219 214 186 130 155 181 188 202 214 215 212 218 222 228 237 240 240 244 247 249 253 254 246 239 240 249 257 258 257 256 257 259 258 254 250 246 242 242 241 239 237 234 232 231 230 227 224 220 217 214 212 211 210 210 210 210 209 209 208 209 210 210 211 211 211 213 217 221 226 232
176 174 185 205 182 148 176 200 210 249 163 153 148 171 208 205 215 219 194 186 167 168 181 195 212 214 210 219 231 233 235 238 240 243 245 244 243 238 232 233 237 243 249 254 257 258 258 259 258 255 252 248 243 241 240 238 237 235 233 232 229 226 222 219 216 214 212 211 210 210 210 210 210 210 210 210 210 210 211 212 214 216 220 224 229 234
207 195 169 184 192 177 205 216 206 120 161 170 170 193 202 203 212 216 204 209 198 186 192 202 218 227 221 224 233 234 234 236 235 233 231 228 226 226 229 232 232 233 237 243 249 254 256 258 259 256 252 248 245 242 240 238 237 235 234 232 229 226 223 219 216 214 212 211 211 211 211 211 211 211 211 210 211 212 213 215 217 219 223 227 231 238
226 177 131 139 194 242 271 231 171 104 172 182 184 198 201 207 215 215 213 228 224 213 215 217 224 234 236 233 232 231 233 234 226 216 209 206 209 216 219 221 225 234 247 251 253 254 253 254 257 259 257 253 248 244 242 240 238 236 235 234 231 227 224 220 217 214 213 212 212 212 212 213 212 211 211 210 211 213 215 218 220 223 226 230 235 243
263 171 151 144 160 190 251 212 157 163 192 189 190 202 204 208 216 219 224 238 243 242 239 227 224 229 233 238 237 232 230 225 209 198 194 195 201 207 209 216 229 243 255 260 261 260 256 254 257 259 261 260 254 248 243 240 237 236 235 234 232 229 225 221 218 216 214 213 213 213 213 214 214 213 213 212 213 214 216 218 221 224 228 234 241 249
188 171 175 182 170 175 217 208 146 161 192 194 200 210 209 211 217 221 227 236 245 250 243 229 224 223 226 234 234 225 218 210 198 190 190 193 199 206 213 224 234 241 250 258 264 265 262 259 257 255 256 258 256 252 246 241 238 237 235 233 232 230 226 221 218 217 216 215 214 214 215 215 215 216 215 215 215 216 218 220 222 226 231 238 246 251
135 158 177 163 159 193 287 200 119 87 162 206 209 208 207 213 218 220 225 232 239 244 236 224 220 217 216 220 216 205 201 200 195 192 195 200 207 215 222 228 232 236 243 249 253 256 256 258 261 259 256 255 254 253 250 245 241 239 236 234 232 229 226 222 219 217 217 216 216 216 216 216 216 216 217 217 217 218 219 221 224 229 234 241 247 250
134 163 178 123 162 220 229 171 168 152 182 212 206 203 203 209 215 218 221 224 229 232 226 215 211 207 203 204 203 199 198 199 200 202 205 208 214 218 221 225 226 230 237 240 243 246 249 253 257 259 258 256 253 251 252 248 244 240 236 233 230 227 225 223 220 217 217 217 217 218 217 217 217 217 217 218 219 220 220 221 225 229 234 241 246 248
174 175 167 162 198 218 198 183 185 189 199 202 199 199 200 205 211 215 217 218 220 221 216 209 205 202 202 204 206 206 205 204 207 209 208 208 211 212 213 218 221 224 230 235 240 247 251 255 259 262 263 261 255 251 250 248 245 242 238 234 231 227 224 222 221 220 219 219 219 220 220 220 219 219 218 218 220 222 224 226 229 232 235 240 245 248